Location: Unspecified
(0.0000°N, 0.0000°E)
Time: 06:19:56
(UTC+00:00)

Hubble Space Telescope - Visible Passes

Search period start: 19 May 2019 00:00
Search period end: 29 May 2019 00:00
Orbit: 536 x 540 km, 28.5° (Epoch: 18 May)

Date Brightness Start Highest point End Pass type
(mag) Time Alt. Az. Time Alt. Az. Time Alt. Az.
23 May 3.5 20:10:10 10° NNW 20:11:02 14° NNW 20:11:02 14° NNW visible
24 May 2.8 19:59:18 10° NW 20:01:10 22° NNW 20:01:10 22° NNW visible
25 May 2.0 19:48:33 10° NW 19:51:19 35° NNW 19:51:19 35° NNW visible
26 May 1.1 19:37:54 10° NW 19:41:31 61° NNW 19:41:31 61° NNW visible
27 May 0.6 19:27:21 10° WNW 19:31:29 82° SSW 19:31:44 76° SSE visible
28 May 1.1 19:16:55 10° WNW 19:20:58 56° SSW 19:21:58 43° SSE visible
